General Aviation Weather

Text Reports

Enter one or more of the following location identifiers separated by a space:

Zip Code, Four-Character ICAO or Three-Character IATA airport codes.

METAR - Aviation Routine Weather Report
KSHD - Staunton, Virginia
Updated at 2:15 PM GMT on August 28, 2014 (10:15 AM EDT):
METAR KSHD 281415Z AUTO 00000KT 10SM CLR 26/19 A3005 RMK AO2 T02560189
TAF - Terminal Area Forecast
KSHD - Staunton, Virginia
Updated at 2:15 PM GMT on August 28, 2014 (10:15 AM EDT):
No TAF is currently available for this location.
Decoded:
No decoded TAF is available.
PIREP - Pilot Weather Report
KSHD - Staunton, Virginia
Updated at 2:15 PM GMT on August 28, 2014 (10:15 AM EDT):
No PIREP is currently available for this location.
AIRMET - Airmens Meteorological Information
KSHD - Staunton, Virginia
Updated at 2:15 PM GMT on August 28, 2014 (10:15 AM EDT):
No AIRMET is currently available for this location.
SIGMET - Significant Meteorological Information
KSHD - Staunton, Virginia
Updated at 2:15 PM GMT on August 28, 2014 (10:15 AM EDT):
No SIGMET is currently available for this location.
NOTAM - Notice to Airmen
KSHD - Staunton, Virginia
Updated at 2:15 PM GMT on August 28, 2014 (10:15 AM EDT):
No NOTAM is currently available for this location.
Forecast Area
KSHD - Staunton, Virginia
Updated at 2:15 PM GMT on August 28, 2014 (10:15 AM EDT):
No NOTAM is currently available for this location.
Aviation Weather Maps